Flag for Christmas Island Weather past 2 weeks in The Settlement, Christmas Island

79 °F

Partly cloudy.

Feels Like: 82 °F
Forecast: 76 / 83 °F
Wind: 6 mph from Southeast

Location: Christmas Island Aerodrome

Current Time: Nov 26, 2015 at 10:08:46 PM

Latest Report: Nov 26, 2015 at 9:00 PM

Visibility: N/A

Pressure: 29.89 "Hg

Humidity: 79%

Dew point: 72 °F

Location of The SettlementLocation

Historic Weather in The Settlement — Graph


The Settlement temperature yesterday

Maximum temperature yesterday: 84 °F (at 1:00 PM)
Minimum temperature yesterday: 75 °F (at 4:00 AM)
Average temperature yesterday: 79 °F

Past Weeks' High & Low Weather Summary

High84 °F (Nov 17, 1:00 PM)94% (Nov 15, 1:30 AM)30.01 "Hg (Nov 15, 1:30 AM)
Low75 °F (Nov 12, 12:56 AM)66% (Nov 12, 10:00 AM)29.80 "Hg (Nov 25, 3:00 PM)
Average79 °F81%29.90 "Hg
* Reported Nov 11 9:00 PM — Nov 26 9:00 PM, The Settlement, Weather by CustomWeather, © 2015

Note: Actual official high and low records may vary slightly from our data, if they occured in-between our weather recording intervals... More about our weather records


The Settlement weather history for previous 24 hours

Time TempWeatherWind HumidityBarometerVisibility
9:00 PM
Thu, Nov 26
79 °FPartly cloudy.6 mph79%29.89 "HgN/A
8:30 PM79 °FPassing clouds.7 mph79%29.89 "HgN/A
8:00 PM79 °FPassing clouds.8 mph79%29.86 "HgN/A
7:30 PM79 °FPassing clouds.8 mph74%29.86 "HgN/A
7:00 PM79 °FPassing clouds.7 mph74%29.86 "HgN/A
6:30 PM79 °FPassing clouds.8 mph74%29.86 "HgN/A
6:00 PM79 °FBroken clouds.8 mph74%29.83 "HgN/A
5:30 PM79 °FBroken clouds.9 mph74%29.83 "HgN/A
5:00 PM79 °FBroken clouds.8 mph79%29.83 "HgN/A
4:30 PM81 °FMostly cloudy.10 mph74%29.83 "HgN/A
4:00 PM81 °FMostly cloudy.9 mph74%29.80 "HgN/A
3:30 PM81 °FMostly cloudy.12 mph74%29.83 "HgN/A
3:00 PM81 °FPartly sunny.9 mph74%29.83 "HgN/A
2:30 PM81 °FPartly sunny.9 mph74%29.83 "HgN/A
2:00 PM82 °FMostly cloudy.13 mph70%29.83 "HgN/A
1:00 PM82 °FPartly sunny.13 mph70%29.86 "HgN/A
12:30 PM82 °FMostly cloudy.12 mph70%29.86 "HgN/A
12:00 PM82 °FPartly sunny.10 mph70%N/AN/A
11:30 AM82 °FMostly cloudy.10 mph70%29.86 "HgN/A
11:00 AM81 °FMostly cloudy.12 mph70%29.86 "HgN/A
10:30 AM82 °FMostly cloudy.12 mph70%29.89 "HgN/A
10:00 AM82 °FPartly sunny.9 mph70%29.89 "HgN/A
9:30 AM82 °FMostly cloudy.12 mph66%29.89 "HgN/A
9:00 AM82 °FPartly sunny.12 mph70%29.89 "HgN/A
8:30 AM81 °FPartly sunny.12 mph74%29.89 "HgN/A
8:00 AM81 °FScattered clouds.12 mph74%29.89 "HgN/A
7:30 AM81 °FScattered clouds.12 mph70%29.89 "HgN/A
7:00 AM79 °FScattered clouds.10 mph79%29.89 "HgN/A
6:00 AM77 °FPartly sunny.9 mph83%29.86 "HgN/A
5:30 AM77 °FScattered clouds.7 mph83%29.86 "HgN/A
5:02 AM77 °FPassing clouds.8 mph83%29.86 "HgN/A
4:30 AM77 °FMostly cloudy.7 mph83%29.86 "HgN/A
4:00 AM77 °FPassing clouds.6 mph83%29.83 "HgN/A
3:30 AM77 °FPassing clouds.7 mph83%29.83 "HgN/A
3:00 AM77 °FPartly cloudy.6 mph83%29.83 "HgN/A
2:58 AM77 °FPartly cloudy.6 mph83%29.83 "HgN/A
2:30 AM77 °FMostly cloudy.5 mph83%29.83 "HgN/A
2:00 AM77 °FPassing clouds.6 mph83%29.86 "HgN/A
1:30 AM77 °FPassing clouds.5 mph83%29.86 "HgN/A
1:00 AM77 °FPartly cloudy.6 mph83%29.86 "HgN/A
12:30 AM77 °FPartly cloudy.6 mph83%29.86 "HgN/A
12:00 AM77 °FPassing clouds.6 mph83%29.86 "HgN/A
11:30 PM
Wed, Nov 25
77 °FPassing clouds.7 mph83%29.89 "HgN/A
11:00 PM77 °FPassing clouds.7 mph83%29.89 "HgN/A
10:30 PM77 °FPassing clouds.6 mph89%29.89 "HgN/A
10:00 PM77 °FMostly cloudy.6 mph83%29.89 "HgN/A
Weather by CustomWeather, © 2015

See weather overviewHow to use our weather pages